Weather History for Effingham, IL

Change the Weather History Date:

Wednesday, April 2, 2014

  Actual Average (KMTO) Record (KMTO)
Temperature  
Mean Temperature 48 °F 49 °F  
Max Temperature 52 °F 59 °F 80 °F (1963)
Min Temperature 43 °F 38 °F 22 °F (1961)
Degree Days  
Heating Degree Days 18 17  
Month to date heating degree days 34  
Since 1 July heating degree days 4937  
Cooling Degree Days 0 0  
Month to date cooling degree days 0  
Year to date cooling degree days 1  
Moisture  
Dew Point 45 °F    
Average Humidity 85    
Maximum Humidity 94    
Minimum Humidity 68    
Precipitation  
Precipitation 1.54 in 0.09 in 1.05 in (1989)
Month to date precipitation 0.18  
Year to date precipitation 6.73  
Sea Level Pressure  
Sea Level Pressure 30.02 in    
Wind  
Wind Speed 6 mph (ENE)    
Max Wind Speed 17 mph    
Max Gust Speed 23 mph    
Visibility 7 miles    
Events Rain , Thunderstorm    
T = Trace of Precipitation, MM = Missing Value Source: NWS Daily Summary

Daily Weather History Graph

Daily Weather History Graph

Search for Another Location

Airport:

Trip Planner

Search our weather history database for the weather conditions in past years. The results will help you decide how hot, cold, wet, or windy it might be!

Date:

Astronomy

Apr. 02, 2014 Rise Set
Actual Time 6:37 AM CDT 7:18 PM CDT
Civil Twilight 6:10 AM CDT 7:45 PM CDT
Nautical Twilight 5:38 AM CDT 8:17 PM CDT
Astronomical Twilight 5:05 AM CDT 8:50 PM CDT
Moon 8:22 AM CDT (4/2) 10:40 PM CDT (4/2)
Length of Visible Light 13h 35m
Length of Day
12h 41m
Waxing Crescent, 10% of the Moon is Illuminated
Apr 2
Waxing Crescent
Apr 7
First Quarter
Apr 15
Full
Apr 22
Last Quarter
Apr 29
New

Hourly Weather History & Observations

Time (CDT) Temp. Windchill Dew Point Humidity Pressure Visibility Wind Dir Wind Speed Gust Speed Precip Events Conditions
12:15 AM 47.7 °F - 37.4 °F 68% 30.05 in 10.0 mi North 5.8 mph - N/A   Overcast
12:35 AM 47.3 °F - 37.2 °F 68% 30.07 in 10.0 mi NNE 9.2 mph - N/A   Overcast
12:55 AM 47.3 °F - 37.6 °F 69% 30.06 in 10.0 mi NE 5.8 mph - N/A   Overcast
1:15 AM 46.9 °F - 37.8 °F 70% 30.07 in 10.0 mi NNE 4.6 mph - N/A   Overcast
1:35 AM 46.8 °F - 38.1 °F 72% 30.08 in 10.0 mi NNE 3.5 mph - N/A   Overcast
1:55 AM 46.8 °F - 37.9 °F 71% 30.08 in 10.0 mi NNE 3.5 mph - N/A   Overcast
2:15 AM 46.6 °F - 38.1 °F 72% 30.08 in 10.0 mi ENE 3.5 mph - N/A   Overcast
2:35 AM 46.4 °F 44.3 °F 38.5 °F 74% 30.08 in 10.0 mi NE 4.6 mph - N/A   Overcast
2:55 AM 46.4 °F 43.5 °F 38.7 °F 74% 30.09 in 10.0 mi NNE 5.8 mph - N/A   Overcast
3:15 AM 46.0 °F 43.1 °F 38.7 °F 75% 30.08 in 10.0 mi NNE 5.8 mph - N/A   Overcast
3:35 AM 46.0 °F 43.9 °F 39.2 °F 77% 30.08 in 10.0 mi NNE 4.6 mph - N/A   Overcast
3:55 AM 45.9 °F 44.6 °F 38.8 °F 76% 30.08 in 10.0 mi NE 3.5 mph - N/A   Overcast
4:15 AM 45.5 °F 41.3 °F 38.5 °F 76% 30.06 in 10.0 mi NE 8.1 mph - N/A Rain Light Rain
4:35 AM 45.5 °F 42.5 °F 37.9 °F 75% 30.07 in 10.0 mi ENE 5.8 mph - N/A Rain Light Rain
4:55 AM 44.8 °F 41.6 °F 38.5 °F 79% 30.09 in 5.0 mi NNE 5.8 mph - 0.02 in Rain Heavy Rain
5:15 AM 43.9 °F 41.3 °F 40.3 °F 87% 30.10 in 2.0 mi NE 4.6 mph - 0.09 in Thunderstorm Thunderstorm
5:35 AM 43.7 °F 39.7 °F 40.6 °F 89% 30.13 in 1.8 mi North 6.9 mph - 0.23 in Thunderstorm Overcast
5:55 AM 43.7 °F 41.1 °F 40.6 °F 89% 30.13 in 2.0 mi ENE 4.6 mph - 0.35 in Thunderstorm Thunderstorm
6:15 AM 44.1 °F 39.5 °F 41.2 °F 90% 30.12 in 1.8 mi East 8.1 mph - 0.13 in   Overcast
7:35 AM 45.1 °F 40.8 °F 41.9 °F 88% 30.08 in 10.0 mi ESE 8.1 mph - N/A   Scattered Clouds
7:55 AM 45.5 °F 39.6 °F 42.1 °F 88% 30.07 in 10.0 mi ESE 12.7 mph - N/A   Mostly Cloudy
8:15 AM 46.2 °F 40.5 °F 42.6 °F 87% 30.06 in 10.0 mi East 12.7 mph - N/A   Scattered Clouds
8:35 AM 47.3 °F - 43.0 °F 85% 30.06 in 10.0 mi East 9.2 mph - N/A   Scattered Clouds
8:55 AM 48.2 °F - 43.0 °F 82% 30.06 in 10.0 mi East 12.7 mph - N/A   Mostly Cloudy
9:15 AM 49.1 °F - 43.7 °F 82% 30.07 in 10.0 mi East 9.2 mph - N/A   Overcast
9:35 AM 49.5 °F - 43.9 °F 81% 30.07 in 10.0 mi East 11.5 mph - N/A   Overcast
9:55 AM 50.0 °F - 44.4 °F 81% 30.06 in 10.0 mi East 10.4 mph - N/A   Overcast
10:15 AM 50.0 °F - 44.8 °F 82% 30.07 in 10.0 mi ENE 9.2 mph - N/A   Overcast
10:35 AM 50.0 °F - 44.6 °F 82% 30.06 in 10.0 mi East 10.4 mph - N/A   Overcast
10:55 AM 50.0 °F - 44.6 °F 82% 30.05 in 10.0 mi East 6.9 mph - N/A   Overcast
11:35 AM 50.0 °F - 44.6 °F 82% 30.05 in 10.0 mi ENE 9.2 mph - N/A Rain Light Rain
11:55 AM 49.5 °F - 44.8 °F 84% 30.06 in 10.0 mi East 8.1 mph - N/A Rain , Thunderstorm Thunderstorms and Rain
12:15 PM 49.1 °F - 44.8 °F 85% 30.03 in 10.0 mi East 11.5 mph - N/A Rain , Thunderstorm Thunderstorms and Rain
12:35 PM 50.0 °F - 44.6 °F 82% 30.05 in 10.0 mi ENE 5.8 mph - N/A Rain , Thunderstorm Rain
12:55 PM 49.1 °F - 45.5 °F 87% 30.08 in 4.0 mi North 4.6 mph - 0.09 in Rain , Thunderstorm Heavy Thunderstorms and Rain
1:15 PM 48.9 °F - 45.9 °F 89% 30.09 in 0.5 mi North 4.6 mph - 0.26 in Rain , Thunderstorm Heavy Thunderstorms and Rain
1:35 PM 48.6 °F - 45.9 °F 90% 30.06 in 1.5 mi NNE 6.9 mph - 0.43 in Rain , Thunderstorm Heavy Thunderstorms and Rain
1:55 PM 48.6 °F - 46.0 °F 91% 30.06 in 2.5 mi Calm Calm - 0.54 in Rain , Thunderstorm Heavy Thunderstorms and Rain
2:15 PM 48.9 °F - 46.4 °F 91% 30.04 in 4.0 mi East 6.9 mph - 0.04 in Rain , Thunderstorm Thunderstorms and Rain
2:35 PM 49.1 °F - 46.4 °F 90% 29.96 in 4.0 mi East 17.3 mph 23.0 mph 0.10 in Rain , Thunderstorm Thunderstorms and Rain
2:55 PM 49.3 °F - 46.6 °F 90% 29.96 in 5.0 mi East 13.8 mph 17.3 mph 0.13 in Rain , Thunderstorm Thunderstorms and Rain
3:15 PM 49.5 °F - 46.8 °F 90% 30.01 in 7.0 mi SE 3.5 mph - N/A Rain , Thunderstorm Thunderstorms and Rain
3:35 PM 49.5 °F - 46.8 °F 90% 29.99 in 2.5 mi East 8.1 mph - 0.14 in Rain , Thunderstorm Light Thunderstorms and Rain
3:55 PM 50.0 °F - 47.3 °F 90% 30.00 in 7.0 mi ESE 10.4 mph - 0.15 in Rain , Thunderstorm Thunderstorms and Rain
4:15 PM 50.0 °F - 47.3 °F 90% 29.94 in 4.0 mi East 16.1 mph - 0.03 in Rain , Thunderstorm Heavy Thunderstorms and Rain
4:35 PM 50.0 °F - 47.5 °F 91% 29.94 in 10.0 mi East 6.9 mph 19.6 mph 0.06 in Rain , Thunderstorm Light Thunderstorms and Rain
4:55 PM 50.0 °F - 48.2 °F 94% 29.96 in 3.0 mi Calm Calm - N/A Rain , Thunderstorm Heavy Thunderstorms and Rain
5:15 PM 50.9 °F - 48.4 °F 91% 29.94 in 7.0 mi NNE 3.5 mph - N/A Rain , Thunderstorm Light Thunderstorms and Rain
5:35 PM 51.3 °F - 48.7 °F 91% 29.93 in 7.0 mi East 6.9 mph - N/A Rain , Thunderstorm Light Thunderstorms and Rain
5:55 PM 51.8 °F - 49.1 °F 90% 29.92 in 7.0 mi East 8.1 mph - N/A   Overcast
6:15 PM 51.8 °F - 49.1 °F 90% 29.92 in - East 6.9 mph - N/A   Unknown
6:35 PM 51.8 °F - 49.1 °F 90% 29.92 in 10.0 mi East 5.8 mph - N/A Rain Light Rain
6:55 PM 51.8 °F - 49.3 °F 91% 29.93 in 7.0 mi North 3.5 mph - N/A Rain , Thunderstorm Heavy Thunderstorms and Rain
7:15 PM 51.8 °F - 49.3 °F 91% 29.92 in 4.0 mi Calm Calm - 0.02 in Rain , Thunderstorm Heavy Thunderstorms and Rain
7:35 PM 51.8 °F - 49.3 °F 91% 29.93 in 5.0 mi Calm Calm - 0.06 in Rain Light Rain
7:55 PM 51.8 °F - 49.3 °F 91% 29.93 in 5.0 mi Calm Calm - 0.07 in Rain Rain
8:15 PM 51.8 °F - 49.3 °F 91% 29.94 in 5.0 mi Calm Calm - N/A Rain Light Rain
8:35 PM 51.8 °F - 49.3 °F 91% 29.94 in 4.0 mi ENE 3.5 mph - N/A Rain Light Rain
8:55 PM 51.8 °F - 49.5 °F 92% 29.94 in 5.0 mi ENE 4.6 mph - N/A Rain Rain
9:15 PM 52.0 °F - 49.6 °F 92% 29.94 in 5.0 mi Calm Calm - N/A Rain Light Rain
9:35 PM 52.0 °F - 49.6 °F 92% 29.95 in 4.0 mi NE 4.6 mph - N/A Rain , Thunderstorm Light Thunderstorms and Rain
9:55 PM 52.2 °F - 50.0 °F 92% 29.94 in 7.0 mi East 6.9 mph - N/A   Overcast
10:15 PM 52.5 °F - 50.2 °F 92% 29.95 in 7.0 mi East 6.9 mph - N/A   Overcast
10:35 PM 52.7 °F - 50.0 °F 91% 29.94 in 7.0 mi East 8.1 mph - N/A Thunderstorm Overcast
10:55 PM 52.7 °F - 50.0 °F 91% 29.93 in 7.0 mi East 9.2 mph - N/A   Overcast
11:15 PM 52.7 °F - 50.0 °F 91% 29.93 in 7.0 mi East 8.1 mph - N/A Rain Light Rain
11:35 PM 52.7 °F - 50.0 °F 91% 29.92 in 5.0 mi East 5.8 mph - N/A   Overcast
11:55 PM 53.6 °F - 50.0 °F 88% 29.91 in 5.0 mi East 5.8 mph - N/A Rain Light Rain